Wind_Speed
14 15 16 16 17 17 18 19 19 19 20 20 20 20 20 20 20 20 21 22 23 23 24 25 25 24 24 24 25 25 26 26 26 26 25 25 25 26
14 14 15 16 16 17 18 19 20 20 21 22 22 22 22 22 22 22 23 24 24 24 24 25 25 25 25 25 26 26 27 27 27 26 26 26 26 26
16 16 16 16 17 18 19 19 19 20 20 21 22 23 23 24 24 25 25 25 25 26 26 26 27 27 26 26 26 27 27 28 28 28 28 28 27 28
17 17 17 17 18 18 19 19 20 21 21 22 22 23 24 25 26 26 27 27 27 27 28 28 28 27 28 28 28 28 28 28 28 29 29 29 29 30
17 18 18 18 19 19 20 21 22 22 22 23 23 24 25 26 27 27 28 28 28 28 28 29 29 29 29 29 29 29 29 29 30 30 31 31 31 31
19 19 19 20 21 21 22 22 23 23 24 24 25 25 26 27 28 28 28 28 28 28 28 28 28 28 29 29 29 29 29 30 30 31 31 32 32 32
21 21 21 22 23 23 23 24 25 25 25 26 26 26 26 27 28 28 28 28 27 27 28 28 28 29 29 29 29 29 29 30 30 31 31 31 32 32
22 22 22 23 23 23 24 24 25 26 27 28 28 28 27 28 28 28 28 28 28 29 29 29 29 29 30 29 30 30 31 31 30 30 30 31 31 32
23 24 23 23 23 24 24 25 26 27 27 28 28 29 29 28 28 29 29 29 29 29 30 30 30 30 30 31 31 31 31 31 32 32 32 32 32 32
24 24 24 24 24 25 25 26 27 27 27 28 28 28 28 29 30 30 30 30 30 30 31 31 31 31 30 31 31 32 32 32 33 33 33 34 34 34
26 26 26 26 26 27 27 27 27 28 28 28 28 29 29 30 31 31 32 32 31 31 32 32 32 32 32 32 32 33 34 34 35 36 36 36 35 35
28 28 28 28 28 29 29 28 29 29 29 29 29 30 31 31 32 33 33 33 33 32 32 32 32 33 33 33 34 34 35 35 36 36 36 35 35 35
29 29 29 29 29 29 30 30 30 30 31 32 32 32 33 33 33 34 34 34 34 34 34 34 34 34 34 34 34 35 35 36 36 35 35 35 36 36
30 30 30 31 30 30 31 31 31 31 32 33 33 33 34 34 34 34 35 35 35 35 35 36 35 35 35 35 35 35 35 36 36 36 35 35 35 36
32 32 32 32 32 32 32 33 33 33 33 34 34 34 34 34 34 34 34 35 35 35 35 36 36 36 36 36 35 35 36 36 35 36 36 35 36 36
32 32 32 32 32 33 33 33 34 34 34 35 35 35 35 34 35 35 35 35 35 35 36 36 37 37 37 37 36 36 36 35 35 35 36 36 36 36
33 33 33 33 33 34 34 34 34 35 35 36 36 36 36 36 36 36 36 36 36 37 37 37 38 38 38 38 37 37 37 37 37 36 36 36 36 35
35 35 35 35 35 35 35 35 35 36 36 37 37 37 37 37 37 37 37 38 38 38 38 39 39 39 38 38 37 37 37 37 37 36 36 35 35 34
37 36 36 36 37 36 36 36 36 36 37 37 37 38 38 38 38 38 39 40 40 40 39 39 39 39 38 38 37 37 37 37 36 36 36 35 35 34
38 38 38 38 38 38 38 37 37 37 37 37 38 38 38 38 39 39 40 40 40 40 39 39 39 39 38 38 37 36 36 36 35 34 34 33 33 33
39 39 39 38 38 38 38 38 38 37 38 38 38 39 39 39 40 40 41 40 40 39 39 39 39 38 37 37 36 35 35 35 34 33 33 32 31 31
40 40 39 39 39 39 39 39 39 39 39 40 40 40 40 41 41 41 41 41 40 40 39 39 38 37 36 35 35 34 34 33 33 32 31 31 30 30
40 40 40 40 40 39 39 40 40 40 40 40 41 41 41 41 41 41 41 40 40 39 39 38 37 36 35 34 34 33 33 32 31 31 30 30 30 29
Wind_Direction
290 288 286 285 283 282 281 278 276 276 277 277 277 277 277 278 281 281 282 283 282 283 283 283 283 282 282 282 283 284 284 284 284 283 282 282 282 282
292 291 288 287 286 286 286 284 281 279 279 279 279 279 279 279 280 281 281 280 281 282 282 282 283 282 282 283 284 283 283 283 283 282 283 283 283 283
294 294 292 289 290 288 288 288 287 285 284 282 282 281 282 282 281 281 280 280 280 281 281 282 280 280 281 282 284 284 283 282 282 282 283 283 283 284
297 294 292 290 289 290 290 289 289 288 286 284 283 282 283 284 284 284 283 282 280 281 281 281 280 279 279 282 283 283 284 283 283 282 284 283 283 285
297 295 291 289 290 289 289 289 288 288 287 285 285 285 285 285 287 286 285 285 283 283 281 281 281 281 280 282 282 283 283 284 284 283 283 283 284 284
298 296 292 290 289 289 288 289 290 290 289 288 287 286 286 287 288 286 286 286 285 284 283 283 282 282 282 283 283 284 284 285 285 285 285 285 285 285
301 299 294 292 291 290 288 288 289 290 289 288 287 287 288 289 288 289 288 288 287 287 287 285 284 282 282 283 285 285 286 285 284 285 286 286 285 285
302 301 297 294 295 293 290 288 287 288 288 287 286 287 289 290 289 289 288 289 288 288 288 288 287 285 284 285 285 286 286 286 285 287 288 287 287 286
303 301 301 299 297 296 293 291 290 290 290 290 289 288 287 288 289 289 289 288 287 288 288 288 287 286 285 286 286 285 285 285 285 286 288 289 289 287
302 302 301 300 298 297 294 292 291 291 290 290 289 289 289 288 288 288 287 287 287 288 288 287 287 288 286 286 286 285 285 285 286 287 287 288 288 287
300 299 299 298 298 297 295 293 292 292 292 290 290 290 290 289 288 287 287 287 287 288 289 287 288 288 288 286 286 286 286 286 287 287 286 287 286 285
296 295 296 297 296 295 294 293 293 293 292 293 291 289 290 290 289 289 288 288 288 288 288 288 288 288 289 288 288 287 287 287 287 287 286 287 286 285
296 294 294 296 297 297 295 293 292 292 292 292 292 291 290 290 289 289 289 289 288 288 288 288 288 288 287 287 288 288 288 288 288 287 287 287 287 286
295 294 294 294 295 295 295 295 294 294 294 293 293 292 292 291 290 290 290 289 289 289 288 288 288 288 288 288 288 287 287 287 287 287 287 287 287 287
297 295 295 294 293 293 293 294 294 294 294 294 294 294 294 294 293 291 290 290 290 290 290 290 289 289 289 288 288 288 287 286 285 285 286 286 286 287
296 297 296 295 294 294 293 294 294 294 294 294 295 295 294 294 293 292 291 291 291 291 291 291 290 290 290 289 289 289 288 288 286 285 286 286 287 286
296 295 295 295 294 295 295 295 294 294 294 294 294 294 294 294 293 292 292 291 291 291 291 290 290 290 290 289 289 289 288 288 287 287 287 287 287 287
298 296 294 293 294 295 295 295 295 295 294 294 293 293 293 293 292 292 291 291 291 290 290 290 290 289 289 288 288 288 288 288 288 288 288 287 287 286
298 297 296 294 294 295 295 295 295 294 294 294 294 293 293 292 292 291 291 291 290 290 290 289 289 288 288 287 287 287 288 288 288 287 286 286 286 286
297 296 296 295 294 294 294 294 294 294 294 294 294 293 293 292 292 292 292 292 291 290 290 290 290 289 288 287 287 287 287 288 288 287 286 286 286 286
295 295 295 295 295 294 294 293 293 294 293 294 293 293 292 292 291 292 292 292 291 291 290 290 290 289 289 288 288 288 288 287 287 287 287 286 286 286
294 294 294 294 294 293 293 293 293 293 293 293 293 292 292 292 291 291 291 290 291 291 291 291 290 288 289 288 288 288 288 288 287 286 286 286 286 286
294 294 293 293 293 293 293 293 293 293 293 293 293 293 292 292 292 292 291 291 291 290 290 289 288 287 288 288 288 288 288 287 287 286 284 286 287 287
Height
5880 5880 5879 5878 5878 5878 5877 5877 5877 5877 5876 5876 5875 5875 5874 5873 5873 5872 5871 5871 5869 5869 5868 5867 5865 5864 5863 5862 5861 5860 5859 5858 5856 5855 5854 5853 5851 5850
5877 5876 5875 5874 5873 5873 5873 5872 5872 5871 5871 5870 5870 5869 5868 5868 5867 5867 5865 5865 5864 5862 5861 5860 5859 5858 5856 5855 5854 5853 5852 5850 5849 5848 5847 5846 5844 5843
5873 5872 5871 5870 5869 5869 5868 5867 5867 5866 5866 5865 5864 5863 5863 5862 5861 5860 5859 5858 5857 5856 5854 5853 5852 5850 5849 5848 5847 5845 5844 5843 5841 5840 5839 5838 5836 5835
5869 5867 5867 5866 5865 5864 5863 5863 5862 5861 5860 5860 5859 5858 5857 5856 5854 5853 5852 5851 5850 5848 5847 5845 5844 5843 5842 5841 5839 5838 5836 5835 5834 5832 5831 5830 5828 5827
5864 5863 5862 5861 5860 5859 5858 5857 5856 5855 5854 5853 5853 5851 5850 5849 5847 5846 5845 5843 5842 5840 5839 5838 5836 5835 5834 5833 5831 5830 5828 5827 5825 5824 5823 5821 5820 5818
5860 5859 5857 5856 5855 5853 5852 5851 5850 5849 5848 5847 5846 5845 5843 5842 5840 5839 5837 5835 5834 5832 5831 5830 5829 5827 5826 5825 5823 5821 5820 5819 5817 5816 5814 5812 5811 5809
5855 5853 5852 5850 5849 5847 5846 5845 5844 5843 5841 5840 5839 5837 5836 5834 5833 5831 5830 5828 5826 5824 5823 5822 5821 5819 5818 5816 5815 5813 5812 5810 5809 5807 5805 5804 5802 5800
5850 5848 5846 5845 5843 5841 5840 5838 5837 5836 5834 5833 5832 5830 5829 5827 5825 5824 5822 5821 5819 5818 5815 5814 5812 5811 5809 5808 5807 5805 5803 5802 5800 5798 5796 5795 5793 5791
5844 5842 5841 5839 5837 5835 5833 5832 5830 5829 5827 5826 5824 5823 5821 5820 5818 5816 5814 5812 5811 5809 5808 5806 5804 5803 5801 5799 5798 5796 5794 5793 5791 5789 5787 5786 5784 5782
5839 5837 5835 5832 5831 5829 5827 5826 5824 5822 5820 5818 5817 5815 5814 5812 5810 5808 5806 5804 5803 5801 5799 5798 5795 5794 5792 5790 5789 5787 5785 5783 5781 5780 5778 5776 5774 5772
5833 5831 5828 5826 5824 5822 5820 5818 5816 5814 5812 5810 5809 5807 5805 5803 5802 5800 5798 5796 5794 5792 5790 5789 5787 5785 5783 5781 5779 5777 5775 5773 5771 5770 5768 5766 5763 5762
5826 5824 5822 5820 5817 5815 5813 5811 5809 5807 5805 5803 5801 5799 5797 5795 5793 5791 5789 5787 5785 5783 5781 5779 5777 5775 5774 5772 5770 5767 5766 5763 5761 5759 5757 5755 5753 5751
5819 5817 5815 5812 5810 5807 5805 5803 5801 5799 5797 5795 5793 5791 5788 5786 5784 5781 5779 5777 5775 5773 5771 5769 5767 5765 5764 5762 5760 5758 5755 5753 5751 5749 5746 5744 5742 5740
5811 5809 5807 5804 5802 5799 5797 5795 5793 5790 5788 5786 5784 5782 5779 5777 5775 5772 5770 5767 5765 5763 5761 5758 5756 5755 5753 5751 5749 5747 5745 5742 5740 5738 5736 5734 5731 5729
5802 5800 5798 5796 5794 5791 5789 5786 5784 5782 5779 5777 5775 5772 5770 5767 5765 5763 5760 5758 5755 5753 5750 5748 5746 5744 5742 5740 5738 5736 5734 5732 5730 5728 5725 5723 5721 5719
5794 5792 5790 5787 5785 5782 5780 5777 5775 5772 5770 5767 5765 5762 5760 5758 5755 5752 5750 5747 5745 5743 5740 5738 5735 5733 5731 5729 5727 5725 5723 5721 5719 5716 5714 5712 5710 5708
5785 5783 5781 5778 5776 5773 5770 5768 5765 5763 5760 5758 5755 5752 5750 5747 5745 5742 5740 5737 5735 5733 5730 5727 5725 5722 5720 5718 5715 5713 5711 5709 5707 5705 5703 5701 5699 5697
5776 5774 5771 5769 5766 5763 5761 5758 5755 5753 5750 5747 5744 5742 5739 5736 5734 5731 5729 5726 5724 5722 5719 5717 5714 5711 5709 5707 5705 5702 5700 5698 5695 5693 5691 5690 5688 5686
5766 5764 5761 5758 5756 5753 5750 5748 5745 5742 5739 5737 5734 5731 5728 5725 5723 5720 5717 5715 5712 5710 5707 5705 5702 5700 5698 5696 5693 5691 5689 5686 5684 5682 5680 5678 5677 5675
5756 5753 5751 5748 5745 5742 5740 5737 5734 5731 5728 5725 5723 5720 5717 5714 5711 5708 5705 5703 5700 5698 5695 5693 5690 5688 5686 5684 5682 5680 5677 5675 5673 5670 5668 5667 5665 5664
5746 5743 5740 5737 5734 5731 5729 5726 5723 5720 5717 5714 5711 5708 5706 5703 5700 5697 5694 5691 5689 5686 5684 5681 5678 5676 5674 5672 5670 5668 5666 5664 5662 5660 5658 5656 5654 5653
5734 5731 5728 5726 5723 5720 5717 5714 5712 5709 5706 5703 5700 5697 5694 5691 5688 5685 5682 5680 5677 5674 5672 5669 5667 5664 5662 5660 5659 5657 5655 5653 5651 5649 5647 5646 5644 5643
5723 5720 5717 5714 5711 5708 5705 5702 5700 5697 5694 5691 5688 5685 5682 5679 5676 5673 5670 5667 5665 5662 5660 5658 5655 5653 5651 5649 5647 5646 5644 5643 5641 5639 5638 5636 5635 5633